LPA1260 UGTB-VIDP

Flight info

Callsign LPA1260
Flight time 3h 54m
Altitude 37000
Route DISKA M737 VERCA M747 BODKA B375 GIRUN G792 MSD B411 PAMTU P628 RK G202 MERUN G452 LKA LKA6A
Aircraft A320/M-SDE3FGHIRWY/LB1

Departure

Time 2026-04-26 17:27
Airport Tbilisi International Airport (UGTB)

Arrival

Time 2026-04-26 21:21
Airport Indira Gandhi International Airport (VIDP)
Time Latitude Longitude Altitude Speed Heading
2026-04-26 16:42 41.67036 44.96138 1527 ft 0 kts 43°
2026-04-26 17:15 41.67034 44.96136 1526 ft 2 kts 43°
2026-04-26 17:15 41.67022 44.96121 1518 ft 2 kts 43°
2026-04-26 17:15 41.67010 44.96106 1521 ft 2 kts 41°
2026-04-26 17:16 41.66998 44.96091 1524 ft 2 kts 41°
2026-04-26 17:16 41.66985 44.96078 1524 ft 2 kts 13°
2026-04-26 17:16 41.66969 44.96078 1525 ft 2 kts 334°
2026-04-26 17:16 41.66955 44.96090 1520 ft 2 kts 314°
2026-04-26 17:17 41.66948 44.96101 1522 ft 0 kts 309°
2026-04-26 17:20 41.66959 44.96082 1520 ft 7 kts 312°
2026-04-26 17:20 41.66990 44.96041 1525 ft 12 kts 312°
2026-04-26 17:20 41.67057 44.95940 1526 ft 8 kts 301°
2026-04-26 17:20 41.67082 44.95881 1523 ft 6 kts 307°
2026-04-26 17:21 41.67107 44.95841 1523 ft 5 kts 311°
2026-04-26 17:21 41.67136 44.95801 1526 ft 8 kts 313°
2026-04-26 17:21 41.67188 44.95730 1526 ft 13 kts 314°
2026-04-26 17:21 41.67263 44.95628 1524 ft 18 kts 314°
2026-04-26 17:22 41.67355 44.95498 1522 ft 20 kts 314°
2026-04-26 17:22 41.67448 44.95357 1523 ft 21 kts 310°
2026-04-26 17:22 41.67544 44.95211 1521 ft 21 kts 311°
2026-04-26 17:22 41.67641 44.95074 1526 ft 15 kts 314°
2026-04-26 17:23 41.67655 44.94957 1522 ft 12 kts 253°
2026-04-26 17:23 41.67632 44.94855 1526 ft 10 kts 253°
2026-04-26 17:23 41.67613 44.94769 1520 ft 10 kts 253°
2026-04-26 17:23 41.67594 44.94688 1526 ft 8 kts 251°
2026-04-26 17:24 41.67575 44.94614 1526 ft 10 kts 251°
2026-04-26 17:24 41.67547 44.94502 1524 ft 15 kts 252°
2026-04-26 17:24 41.67503 44.94380 1521 ft 10 kts 182°
2026-04-26 17:24 41.67471 44.94414 1525 ft 0 kts 136°
2026-04-26 17:26 41.67466 44.94420 1525 ft 6 kts 136°
2026-04-26 17:26 41.67254 44.94686 1525 ft 78 kts 136°
2026-04-26 17:26 41.66704 44.95375 1522 ft 136 kts 136°
2026-04-26 17:27 41.65901 44.96383 1647 ft 172 kts 137°
2026-04-26 17:27 41.65003 44.97490 2268 ft 178 kts 137°
2026-04-26 17:27 41.64071 44.98640 2907 ft 186 kts 137°
2026-04-26 17:27 41.63091 44.99874 3350 ft 208 kts 137°
2026-04-26 17:28 41.61992 45.01258 3680 ft 227 kts 137°
2026-04-26 17:28 41.60779 45.02786 3973 ft 251 kts 137°
2026-04-26 17:28 41.59475 45.04432 4589 ft 262 kts 137°
2026-04-26 17:28 41.58141 45.06118 5380 ft 266 kts 137°
2026-04-26 17:29 41.56780 45.07834 6146 ft 271 kts 137°
2026-04-26 17:29 41.55927 45.09069 6645 ft 276 kts 126°
2026-04-26 17:29 41.54536 45.12007 7627 ft 282 kts 123°
2026-04-26 17:29 41.53489 45.14250 8348 ft 287 kts 124°
2026-04-26 17:30 41.52417 45.16535 9075 ft 292 kts 124°
2026-04-26 17:30 41.51328 45.18844 9820 ft 296 kts 124°
2026-04-26 17:30 41.50220 45.21183 10513 ft 300 kts 124°
2026-04-26 17:30 41.49073 45.23593 10869 ft 318 kts 124°
2026-04-26 17:31 41.47839 45.26181 11024 ft 342 kts 124°
2026-04-26 17:31 41.46503 45.28930 11151 ft 363 kts 128°
2026-04-26 17:31 41.44812 45.31524 11380 ft 378 kts 135°
2026-04-26 17:31 41.43006 45.34110 11923 ft 384 kts 135°
2026-04-26 17:32 41.41177 45.36729 12542 ft 387 kts 135°
2026-04-26 17:32 41.39329 45.39373 13171 ft 391 kts 135°
2026-04-26 17:32 41.37489 45.42000 13799 ft 394 kts 135°
2026-04-26 17:32 41.35612 45.44680 14361 ft 397 kts 135°
2026-04-26 17:33 41.33720 45.47384 14915 ft 400 kts 135°
2026-04-26 17:33 41.31814 45.50108 15466 ft 403 kts 135°
2026-04-26 17:33 41.29893 45.52848 16010 ft 407 kts 135°
2026-04-26 17:34 41.25996 45.58393 17085 ft 413 kts 136°
2026-04-26 17:34 41.24026 45.61190 17611 ft 416 kts 136°
2026-04-26 17:34 41.22164 45.64170 18127 ft 423 kts 127°
2026-04-26 17:34 41.20663 45.67564 18596 ft 429 kts 118°
2026-04-26 17:35 41.19566 45.71278 18937 ft 437 kts 111°
2026-04-26 17:35 41.18567 45.75086 19039 ft 448 kts 111°
2026-04-26 17:35 41.17521 45.79076 19176 ft 456 kts 111°
2026-04-26 17:35 41.16472 45.83079 19380 ft 461 kts 111°
2026-04-26 17:36 41.15412 45.87111 19671 ft 464 kts 111°
2026-04-26 17:36 41.14342 45.91166 19979 ft 466 kts 112°
2026-04-26 17:36 41.13632 45.93854 20170 ft 467 kts 112°
2026-04-26 17:36 41.12553 45.97924 20456 ft 469 kts 112°
2026-04-26 17:37 41.11463 46.02018 20731 ft 471 kts 112°
2026-04-26 17:37 41.10366 46.06120 21010 ft 472 kts 112°
2026-04-26 17:37 41.09259 46.10245 21281 ft 474 kts 112°
2026-04-26 17:38 41.07045 46.18499 21856 ft 476 kts 112°
2026-04-26 17:38 41.05937 46.22634 22110 ft 477 kts 112°
2026-04-26 17:38 41.04824 46.26789 22363 ft 479 kts 112°
2026-04-26 17:38 41.03706 46.30958 22598 ft 481 kts 112°
2026-04-26 17:39 41.02588 46.35138 22826 ft 482 kts 112°
2026-04-26 17:39 41.01467 46.39333 23045 ft 484 kts 112°
2026-04-26 17:39 41.00357 46.43490 23243 ft 485 kts 112°
2026-04-26 17:39 40.99231 46.47708 23498 ft 485 kts 112°
2026-04-26 17:40 40.98104 46.51921 23697 ft 486 kts 112°
2026-04-26 17:40 40.97342 46.54764 23798 ft 486 kts 112°
2026-04-26 17:40 40.95836 46.60359 23975 ft 488 kts 113°
2026-04-26 17:40 40.94694 46.64585 24109 ft 489 kts 113°
2026-04-26 17:41 40.93546 46.68819 24227 ft 489 kts 113°
2026-04-26 17:41 40.92397 46.73059 24337 ft 490 kts 113°
2026-04-26 17:41 40.91244 46.77306 24446 ft 490 kts 112°
2026-04-26 17:41 40.90089 46.81555 24563 ft 491 kts 112°
2026-04-26 17:42 40.88932 46.85802 24680 ft 491 kts 112°
2026-04-26 17:42 40.87770 46.90047 24794 ft 491 kts 113°
2026-04-26 17:42 40.86605 46.94288 24917 ft 491 kts 113°
2026-04-26 17:42 40.85438 46.98529 25036 ft 491 kts 113°
2026-04-26 17:43 40.84270 47.02779 25156 ft 491 kts 113°
2026-04-26 17:43 40.83105 47.07016 25258 ft 491 kts 112°
2026-04-26 17:43 40.81939 47.11255 25381 ft 491 kts 112°
2026-04-26 17:43 40.80780 47.15457 25801 ft 484 kts 113°
2026-04-26 17:44 40.79627 47.19613 26172 ft 480 kts 113°
2026-04-26 17:44 40.78491 47.23684 26527 ft 478 kts 113°
2026-04-26 17:44 40.77342 47.27789 26846 ft 476 kts 113°
2026-04-26 17:44 40.76192 47.31893 27126 ft 477 kts 113°
2026-04-26 17:45 40.75040 47.35989 27385 ft 476 kts 113°
2026-04-26 17:45 40.73884 47.40082 27690 ft 476 kts 113°
2026-04-26 17:45 40.72730 47.44169 28000 ft 475 kts 113°
2026-04-26 17:45 40.71581 47.48251 28313 ft 474 kts 113°
2026-04-26 17:46 40.70436 47.52326 28637 ft 474 kts 113°
2026-04-26 17:46 40.69294 47.56394 28957 ft 473 kts 113°
2026-04-26 17:46 40.68153 47.60450 29271 ft 472 kts 114°
2026-04-26 17:46 40.67008 47.64508 29580 ft 472 kts 114°
2026-04-26 17:47 40.65862 47.68555 29911 ft 471 kts 114°
2026-04-26 17:47 40.65105 47.71224 30124 ft 470 kts 114°
2026-04-26 17:47 40.63574 47.76626 30483 ft 470 kts 114°
2026-04-26 17:47 40.62433 47.80657 30739 ft 469 kts 114°
2026-04-26 17:48 40.61292 47.84679 30990 ft 469 kts 114°
2026-04-26 17:48 40.60144 47.88702 31249 ft 469 kts 114°
2026-04-26 17:48 40.58994 47.92714 31506 ft 469 kts 114°
2026-04-26 17:48 40.57853 47.96731 31765 ft 468 kts 113°
2026-04-26 17:49 40.56789 48.00777 32032 ft 469 kts 111°
2026-04-26 17:49 40.55790 48.04856 32305 ft 469 kts 110°
2026-04-26 17:49 40.54828 48.08953 32566 ft 468 kts 110°
2026-04-26 17:49 40.53873 48.13044 32814 ft 468 kts 110°
2026-04-26 17:50 40.52907 48.17127 33061 ft 468 kts 111°
2026-04-26 17:50 40.51922 48.21205 33300 ft 468 kts 111°
2026-04-26 17:50 40.50920 48.25276 33538 ft 468 kts 111°
2026-04-26 17:50 40.49907 48.29340 33740 ft 468 kts 111°
2026-04-26 17:51 40.48887 48.33418 33882 ft 470 kts 111°
2026-04-26 17:51 40.47865 48.37505 34034 ft 471 kts 111°
2026-04-26 17:51 40.46843 48.41594 34193 ft 471 kts 111°
2026-04-26 17:51 40.45823 48.45692 34365 ft 472 kts 111°
2026-04-26 17:52 40.44807 48.49779 34514 ft 472 kts 111°
2026-04-26 17:52 40.43802 48.53825 34671 ft 472 kts 112°
2026-04-26 17:52 40.42782 48.57924 34828 ft 472 kts 111°
2026-04-26 17:52 40.41760 48.62012 35040 ft 470 kts 112°
2026-04-26 17:53 40.40738 48.66095 35216 ft 470 kts 112°
2026-04-26 17:53 40.39714 48.70166 35372 ft 470 kts 112°
2026-04-26 17:53 40.38686 48.74246 35521 ft 470 kts 112°
2026-04-26 17:54 40.36628 48.82396 35795 ft 471 kts 112°
2026-04-26 17:54 40.35595 48.86467 35922 ft 471 kts 112°
2026-04-26 17:54 40.34560 48.90533 36047 ft 470 kts 112°
2026-04-26 17:54 40.33524 48.94602 36206 ft 469 kts 112°
2026-04-26 17:55 40.32505 48.98603 36337 ft 469 kts 112°
2026-04-26 17:55 40.31475 49.02651 36485 ft 468 kts 112°
2026-04-26 17:55 40.30444 49.06693 36615 ft 468 kts 112°
2026-04-26 17:55 40.29409 49.10737 36746 ft 468 kts 112°
2026-04-26 17:56 40.28370 49.14770 36876 ft 467 kts 112°
2026-04-26 17:56 40.26273 49.22822 37078 ft 468 kts 113°
2026-04-26 17:57 40.24167 49.30929 37069 ft 472 kts 112°
2026-04-26 17:57 40.22059 49.39100 37073 ft 475 kts 112°
2026-04-26 17:58 40.17774 49.55561 37075 ft 480 kts 113°
2026-04-26 17:59 40.14516 49.67982 37073 ft 482 kts 113°
2026-04-26 17:59 40.12342 49.76228 37071 ft 484 kts 113°
2026-04-26 18:00 40.10149 49.84544 37050 ft 485 kts 113°
2026-04-26 18:00 40.07948 49.92875 37083 ft 485 kts 113°
2026-04-26 18:01 40.05739 50.01206 37081 ft 486 kts 113°
2026-04-26 18:01 40.03516 50.09546 37090 ft 487 kts 113°
2026-04-26 18:02 40.01671 50.16476 37091 ft 487 kts 113°
2026-04-26 18:02 39.99077 50.26175 37092 ft 487 kts 113°
2026-04-26 18:03 39.96824 50.34505 37092 ft 487 kts 113°
2026-04-26 18:03 39.94565 50.42841 37083 ft 487 kts 113°
2026-04-26 18:04 39.92310 50.51176 37089 ft 487 kts 113°
2026-04-26 18:05 39.88919 50.63678 37077 ft 488 kts 114°
2026-04-26 18:05 39.86657 50.71962 37074 ft 488 kts 114°
2026-04-26 18:06 39.84369 50.80284 37073 ft 488 kts 114°
2026-04-26 18:06 39.82082 50.88604 37074 ft 489 kts 114°
2026-04-26 18:07 39.79789 50.96927 37074 ft 488 kts 114°
2026-04-26 18:07 39.77478 51.05243 37061 ft 489 kts 114°
2026-04-26 18:08 39.75169 51.13554 37071 ft 489 kts 114°
2026-04-26 18:08 39.72859 51.21858 37072 ft 489 kts 114°
2026-04-26 18:09 39.70538 51.30161 37082 ft 489 kts 114°
2026-04-26 18:09 39.68210 51.38465 37093 ft 489 kts 114°
2026-04-26 18:10 39.65877 51.46767 37098 ft 490 kts 114°
2026-04-26 18:10 39.63490 51.55038 37089 ft 489 kts 116°
2026-04-26 18:11 39.60958 51.63157 37092 ft 488 kts 116°
2026-04-26 18:11 39.58360 51.71308 37095 ft 489 kts 116°
2026-04-26 18:12 39.55796 51.79476 37094 ft 489 kts 116°
2026-04-26 18:12 39.53250 51.87662 37087 ft 489 kts 116°
2026-04-26 18:13 39.50700 51.95828 37093 ft 489 kts 116°
2026-04-26 18:13 39.48135 52.03986 37095 ft 489 kts 116°
2026-04-26 18:14 39.45584 52.12082 37094 ft 489 kts 116°
2026-04-26 18:14 39.43001 52.20237 37090 ft 489 kts 116°
2026-04-26 18:15 39.40414 52.28378 37084 ft 489 kts 116°
2026-04-26 18:15 39.37820 52.36538 37079 ft 490 kts 116°
2026-04-26 18:16 39.35239 52.44641 37069 ft 490 kts 116°
2026-04-26 18:16 39.31331 52.56840 37072 ft 489 kts 116°
2026-04-26 18:17 39.28726 52.64958 37071 ft 489 kts 116°
2026-04-26 18:17 39.26221 52.73129 37073 ft 490 kts 115°
2026-04-26 18:18 39.23801 52.81340 37084 ft 490 kts 114°
2026-04-26 18:18 39.21368 52.89545 37085 ft 490 kts 115°
2026-04-26 18:19 39.18887 52.97746 37085 ft 490 kts 115°
2026-04-26 18:19 39.16406 53.05854 37089 ft 490 kts 115°
2026-04-26 18:20 39.13904 53.14030 37087 ft 490 kts 115°
2026-04-26 18:20 39.12233 53.19501 37089 ft 490 kts 115°
2026-04-26 18:21 39.08904 53.30377 37070 ft 491 kts 115°
2026-04-26 18:21 39.06393 53.38545 37060 ft 491 kts 115°
2026-04-26 18:22 39.04293 53.45350 37060 ft 491 kts 115°
2026-04-26 18:22 39.01766 53.53513 37071 ft 492 kts 115°
2026-04-26 18:23 38.99237 53.61693 37059 ft 492 kts 115°
2026-04-26 18:23 38.96707 53.69852 37065 ft 492 kts 115°
2026-04-26 18:24 38.94174 53.78013 37063 ft 492 kts 115°
2026-04-26 18:24 38.91632 53.86170 37046 ft 492 kts 115°
2026-04-26 18:25 38.89082 53.94328 37050 ft 492 kts 115°
2026-04-26 18:25 38.86543 54.02433 37049 ft 492 kts 115°
2026-04-26 18:26 38.83989 54.10581 37046 ft 492 kts 115°
2026-04-26 18:26 38.81424 54.18726 37038 ft 493 kts 115°
2026-04-26 18:27 38.78848 54.26867 37038 ft 493 kts 115°
2026-04-26 18:27 38.76263 54.35006 37040 ft 493 kts 115°
2026-04-26 18:28 38.73680 54.43138 37053 ft 493 kts 115°
2026-04-26 18:28 38.71091 54.51268 37056 ft 493 kts 115°
2026-04-26 18:29 38.68494 54.59390 37054 ft 493 kts 116°
2026-04-26 18:29 38.65893 54.67523 37051 ft 493 kts 115°
2026-04-26 18:30 38.63286 54.75634 37054 ft 493 kts 116°
2026-04-26 18:30 38.60677 54.83696 37052 ft 494 kts 116°
2026-04-26 18:31 38.58054 54.91810 37039 ft 494 kts 116°
2026-04-26 18:31 38.55429 54.99924 37037 ft 494 kts 116°
2026-04-26 18:32 38.52786 55.08040 37043 ft 495 kts 116°
2026-04-26 18:32 38.50137 55.16150 37039 ft 495 kts 116°
2026-04-26 18:33 38.47483 55.24270 37046 ft 495 kts 116°
2026-04-26 18:33 38.44818 55.32400 37047 ft 496 kts 116°
2026-04-26 18:34 38.42165 55.40454 37045 ft 496 kts 116°
2026-04-26 18:34 38.39489 55.48580 37046 ft 496 kts 116°
2026-04-26 18:35 38.36794 55.56681 37033 ft 496 kts 117°
2026-04-26 18:35 38.34048 55.64736 37040 ft 496 kts 117°
2026-04-26 18:36 38.31299 55.72784 37045 ft 496 kts 117°
2026-04-26 18:36 38.28557 55.80840 37048 ft 495 kts 117°
2026-04-26 18:37 38.25817 55.88882 37046 ft 495 kts 117°
2026-04-26 18:37 38.23064 55.96915 37050 ft 495 kts 117°
2026-04-26 18:38 38.20300 56.04936 37056 ft 495 kts 117°
2026-04-26 18:38 38.17547 56.12898 37058 ft 495 kts 117°
2026-04-26 18:39 38.14776 56.20914 37043 ft 496 kts 117°
2026-04-26 18:39 38.11998 56.28931 37041 ft 496 kts 117°
2026-04-26 18:40 38.08656 56.36512 37057 ft 487 kts 131°
2026-04-26 18:40 38.04507 56.43302 37058 ft 487 kts 131°
2026-04-26 18:41 38.00365 56.50093 37051 ft 486 kts 131°
2026-04-26 18:41 37.96245 56.56835 37057 ft 487 kts 132°
2026-04-26 18:42 37.92091 56.63612 37052 ft 487 kts 132°
2026-04-26 18:42 37.87926 56.70391 37060 ft 488 kts 132°
2026-04-26 18:43 37.83745 56.77179 37055 ft 489 kts 132°
2026-04-26 18:43 37.79562 56.83965 37028 ft 489 kts 132°
2026-04-26 18:44 37.75398 56.90712 37036 ft 490 kts 132°
2026-04-26 18:44 37.71198 56.97511 37043 ft 490 kts 132°
2026-04-26 18:45 37.66996 57.04286 37047 ft 490 kts 132°
2026-04-26 18:45 37.62779 57.11067 37037 ft 491 kts 132°
2026-04-26 18:46 37.58563 57.17842 37053 ft 491 kts 132°
2026-04-26 18:46 37.54343 57.24601 37139 ft 490 kts 132°
2026-04-26 18:47 37.50144 57.31299 37138 ft 490 kts 132°
2026-04-26 18:47 37.46126 57.38257 37131 ft 492 kts 127°
2026-04-26 18:48 37.42417 57.45519 37126 ft 493 kts 126°
2026-04-26 18:48 37.38738 57.52809 37100 ft 493 kts 127°
2026-04-26 18:49 37.34959 57.60014 37095 ft 493 kts 127°
2026-04-26 18:49 37.31127 57.67158 37078 ft 493 kts 128°
2026-04-26 18:50 37.27306 57.74297 37070 ft 493 kts 127°
2026-04-26 18:50 37.23495 57.81455 37075 ft 494 kts 127°
2026-04-26 18:51 37.19703 57.88581 37083 ft 494 kts 127°
2026-04-26 18:51 37.15876 57.95743 37088 ft 494 kts 128°
2026-04-26 18:52 37.12039 58.02900 37096 ft 495 kts 128°
2026-04-26 18:52 37.08198 58.10072 37107 ft 495 kts 127°
2026-04-26 18:53 37.04362 58.17245 37118 ft 496 kts 127°
2026-04-26 18:53 37.00517 58.24420 37101 ft 496 kts 128°
2026-04-26 18:54 36.96684 58.31538 37127 ft 496 kts 128°
2026-04-26 18:54 36.92821 58.38692 37136 ft 496 kts 128°
2026-04-26 18:55 36.88948 58.45848 37132 ft 497 kts 128°
2026-04-26 18:55 36.85081 58.53005 37136 ft 497 kts 128°
2026-04-26 18:56 36.81207 58.60144 37160 ft 497 kts 128°
2026-04-26 18:56 36.77316 58.67280 37154 ft 497 kts 128°
2026-04-26 18:57 36.74079 58.73212 37154 ft 496 kts 128°
2026-04-26 18:57 36.69555 58.81470 37161 ft 496 kts 129°
2026-04-26 18:58 36.65654 58.88555 37162 ft 496 kts 129°
2026-04-26 18:58 36.61747 58.95629 37166 ft 496 kts 129°
2026-04-26 18:59 36.57842 59.02715 37151 ft 497 kts 129°
2026-04-26 18:59 36.53934 59.09811 37159 ft 497 kts 129°
2026-04-26 19:00 36.50035 59.16853 37178 ft 497 kts 129°
2026-04-26 19:00 36.46105 59.23926 37151 ft 497 kts 129°
2026-04-26 19:01 36.42168 59.31011 37169 ft 498 kts 129°
2026-04-26 19:01 36.38224 59.38093 37190 ft 498 kts 129°
2026-04-26 19:02 36.34292 59.45121 37199 ft 499 kts 129°
2026-04-26 19:02 36.30976 59.51043 37191 ft 499 kts 129°
2026-04-26 19:03 36.26367 59.59273 37202 ft 500 kts 129°
2026-04-26 19:03 36.22296 59.66240 37199 ft 496 kts 136°
2026-04-26 19:04 36.17766 59.72669 37208 ft 495 kts 136°
2026-04-26 19:04 36.13257 59.79057 37197 ft 496 kts 136°
2026-04-26 19:05 36.06445 59.88719 37189 ft 497 kts 136°
2026-04-26 19:06 36.01889 59.95145 37166 ft 497 kts 136°
2026-04-26 19:06 35.97325 60.01574 37164 ft 497 kts 136°
2026-04-26 19:07 35.92755 60.07992 37169 ft 497 kts 136°
2026-04-26 19:07 35.88182 60.14411 37179 ft 498 kts 136°
2026-04-26 19:08 35.83637 60.20789 37161 ft 498 kts 137°
2026-04-26 19:08 35.79059 60.27190 37173 ft 498 kts 137°
2026-04-26 19:09 35.74474 60.33599 37177 ft 498 kts 137°
2026-04-26 19:09 35.69887 60.40002 37162 ft 499 kts 137°
2026-04-26 19:10 35.65287 60.46393 37150 ft 499 kts 137°
2026-04-26 19:10 35.60712 60.52734 37156 ft 499 kts 137°
2026-04-26 19:11 35.56109 60.59120 37166 ft 499 kts 137°
2026-04-26 19:11 35.51507 60.65522 37163 ft 500 kts 137°
2026-04-26 19:12 35.46895 60.71957 37161 ft 501 kts 137°
2026-04-26 19:12 35.42317 60.78328 37151 ft 500 kts 137°
2026-04-26 19:13 35.37708 60.84714 37136 ft 499 kts 137°
2026-04-26 19:13 35.33876 60.90007 37144 ft 499 kts 137°
2026-04-26 19:14 35.29268 60.96372 37140 ft 499 kts 137°
2026-04-26 19:14 35.24660 61.02731 37133 ft 499 kts 137°
2026-04-26 19:15 35.20051 61.09070 37136 ft 498 kts 138°
2026-04-26 19:15 35.15327 61.15238 37129 ft 493 kts 143°
2026-04-26 19:16 35.10364 61.20945 37127 ft 493 kts 143°
2026-04-26 19:16 35.05366 61.26684 37129 ft 493 kts 143°
2026-04-26 19:17 35.00365 61.32429 37124 ft 494 kts 143°
2026-04-26 19:17 34.95360 61.38166 37119 ft 494 kts 143°
2026-04-26 19:18 34.90340 61.43901 37116 ft 494 kts 143°
2026-04-26 19:18 34.85335 61.49623 37113 ft 493 kts 143°
2026-04-26 19:19 34.80347 61.55304 37110 ft 494 kts 143°
2026-04-26 19:19 34.75318 61.61016 37099 ft 494 kts 143°
2026-04-26 19:20 34.70289 61.66726 37106 ft 495 kts 143°
2026-04-26 19:20 34.65257 61.72429 37092 ft 494 kts 143°
2026-04-26 19:21 34.60219 61.78132 37077 ft 494 kts 143°
2026-04-26 19:21 34.55211 61.83782 37074 ft 494 kts 143°
2026-04-26 19:22 34.50166 61.89465 37074 ft 494 kts 143°
2026-04-26 19:22 34.45133 61.95138 37064 ft 494 kts 143°
2026-04-26 19:23 34.40100 62.00799 37053 ft 493 kts 143°
2026-04-26 19:23 34.35061 62.06456 37054 ft 493 kts 143°
2026-04-26 19:24 34.30057 62.12055 37049 ft 494 kts 143°
2026-04-26 19:24 34.22471 62.20520 37046 ft 495 kts 143°
2026-04-26 19:25 34.18570 62.25662 37049 ft 501 kts 135°
2026-04-26 19:25 34.13335 62.33228 37033 ft 502 kts 135°
2026-04-26 19:26 34.08881 62.39642 37039 ft 502 kts 135°
2026-04-26 19:26 34.04390 62.46093 37044 ft 503 kts 135°
2026-04-26 19:27 33.99890 62.52543 37053 ft 503 kts 135°
2026-04-26 19:27 33.95378 62.58993 37045 ft 503 kts 135°
2026-04-26 19:28 33.90860 62.65438 37049 ft 503 kts 135°
2026-04-26 19:28 33.86346 62.71881 37052 ft 503 kts 135°
2026-04-26 19:29 33.81826 62.78315 37029 ft 503 kts 135°
2026-04-26 19:29 33.77303 62.84745 37032 ft 504 kts 135°
2026-04-26 19:30 33.72804 62.91130 37045 ft 504 kts 135°
2026-04-26 19:30 33.69016 62.96507 37026 ft 502 kts 135°
2026-04-26 19:31 33.63755 63.03938 36995 ft 503 kts 135°
2026-04-26 19:31 33.59207 63.10341 37013 ft 504 kts 135°
2026-04-26 19:32 33.54660 63.16744 37019 ft 504 kts 135°
2026-04-26 19:32 33.50107 63.23150 37000 ft 504 kts 135°
2026-04-26 19:33 33.45583 63.29515 37008 ft 505 kts 135°
2026-04-26 19:33 33.41017 63.35917 37005 ft 506 kts 135°
2026-04-26 19:34 33.36432 63.42316 37012 ft 506 kts 136°
2026-04-26 19:34 33.31840 63.48713 37020 ft 507 kts 135°
2026-04-26 19:35 33.27248 63.55111 37002 ft 507 kts 135°
2026-04-26 19:35 33.22686 63.61462 37007 ft 507 kts 135°
2026-04-26 19:36 33.18832 63.66814 37014 ft 507 kts 135°
2026-04-26 19:36 33.13488 63.74222 37009 ft 507 kts 135°
2026-04-26 19:37 33.08892 63.80587 36989 ft 505 kts 135°
2026-04-26 19:37 33.04307 63.86925 37019 ft 504 kts 135°
2026-04-26 19:38 32.99720 63.93254 37015 ft 505 kts 135°
2026-04-26 19:38 32.95117 63.99590 37018 ft 506 kts 136°
2026-04-26 19:39 32.90508 64.05913 37002 ft 506 kts 136°
2026-04-26 19:39 32.85897 64.12238 37016 ft 506 kts 136°
2026-04-26 19:40 32.81313 64.18510 37007 ft 506 kts 136°
2026-04-26 19:40 32.76691 64.24837 36998 ft 507 kts 136°
2026-04-26 19:41 32.72068 64.31154 36969 ft 506 kts 136°
2026-04-26 19:41 32.68229 64.36388 36965 ft 505 kts 136°
2026-04-26 19:42 32.62841 64.43718 36963 ft 503 kts 136°
2026-04-26 19:42 32.58184 64.49920 36941 ft 503 kts 137°
2026-04-26 19:43 32.53472 64.55982 36914 ft 502 kts 137°
2026-04-26 19:43 32.48726 64.62068 36927 ft 503 kts 137°
2026-04-26 19:44 32.43995 64.68183 36922 ft 504 kts 137°
2026-04-26 19:44 32.39262 64.74310 36927 ft 504 kts 137°
2026-04-26 19:45 32.34522 64.80436 36909 ft 505 kts 137°
2026-04-26 19:45 32.29803 64.86527 36907 ft 505 kts 137°
2026-04-26 19:46 32.25049 64.92642 36911 ft 505 kts 137°
2026-04-26 19:46 32.20287 64.98756 36922 ft 505 kts 137°
2026-04-26 19:47 32.16332 65.03832 36896 ft 505 kts 137°
2026-04-26 19:47 32.10768 65.10971 36900 ft 506 kts 137°
2026-04-26 19:48 32.06016 65.17034 36896 ft 506 kts 137°
2026-04-26 19:48 32.01222 65.23142 36900 ft 507 kts 137°
2026-04-26 19:49 31.96433 65.29259 36908 ft 507 kts 137°
2026-04-26 19:49 31.91642 65.35359 36886 ft 506 kts 137°
2026-04-26 19:50 31.86884 65.41393 36901 ft 506 kts 137°
2026-04-26 19:50 31.82090 65.47476 36894 ft 506 kts 137°
2026-04-26 19:51 31.77300 65.53540 36893 ft 506 kts 137°
2026-04-26 19:51 31.72504 65.59596 36879 ft 506 kts 137°
2026-04-26 19:52 31.67704 65.65651 36894 ft 507 kts 137°
2026-04-26 19:52 31.62900 65.71703 36885 ft 505 kts 137°
2026-04-26 19:53 31.58147 65.77693 36885 ft 504 kts 137°
2026-04-26 19:53 31.53360 65.83710 36887 ft 504 kts 137°
2026-04-26 19:54 31.48572 65.89746 36888 ft 506 kts 134°
2026-04-26 19:54 31.44289 65.96325 36887 ft 508 kts 131°
2026-04-26 19:55 31.40060 66.02939 36894 ft 508 kts 131°
2026-04-26 19:55 31.35858 66.09519 36870 ft 508 kts 130°
2026-04-26 19:56 31.31621 66.16135 36898 ft 508 kts 131°
2026-04-26 19:56 31.27363 66.22752 36895 ft 509 kts 131°
2026-04-26 19:57 31.23101 66.29364 36900 ft 509 kts 131°
2026-04-26 19:57 31.18838 66.35981 36899 ft 509 kts 131°
2026-04-26 19:58 31.14607 66.42543 36910 ft 509 kts 131°
2026-04-26 19:58 31.10336 66.49153 36910 ft 510 kts 131°
2026-04-26 19:59 31.06057 66.55751 36926 ft 510 kts 131°
2026-04-26 19:59 31.01760 66.62348 36937 ft 511 kts 131°
2026-04-26 20:00 30.97278 66.68747 36956 ft 509 kts 135°
2026-04-26 20:00 30.92710 66.74834 36938 ft 506 kts 135°
2026-04-26 20:01 30.88077 66.81005 36942 ft 505 kts 135°
2026-04-26 20:01 30.83513 66.87215 36940 ft 505 kts 134°
2026-04-26 20:02 30.79003 66.93398 36940 ft 504 kts 134°
2026-04-26 20:02 30.75960 66.97556 36939 ft 504 kts 134°
2026-04-26 20:03 30.69892 67.05800 36938 ft 505 kts 134°
2026-04-26 20:03 30.65313 67.11999 36947 ft 505 kts 134°
2026-04-26 20:04 30.60759 67.18152 36946 ft 505 kts 135°
2026-04-26 20:04 30.56175 67.24330 36940 ft 505 kts 135°
2026-04-26 20:05 30.51593 67.30500 36947 ft 505 kts 135°
2026-04-26 20:05 30.47004 67.36682 36953 ft 506 kts 135°
2026-04-26 20:06 30.42405 67.42871 36948 ft 506 kts 135°
2026-04-26 20:06 30.37829 67.49022 36924 ft 506 kts 135°
2026-04-26 20:07 30.33219 67.55203 36913 ft 507 kts 135°
2026-04-26 20:07 30.28598 67.61383 36905 ft 509 kts 135°
2026-04-26 20:08 30.23956 67.67573 36906 ft 509 kts 135°
2026-04-26 20:08 30.20093 67.72722 36870 ft 510 kts 135°
2026-04-26 20:09 30.14687 67.79935 36877 ft 511 kts 135°
2026-04-26 20:09 30.10804 67.85096 36826 ft 511 kts 135°
2026-04-26 20:10 30.06171 67.91338 36831 ft 512 kts 133°
2026-04-26 20:10 30.01699 67.97758 36815 ft 513 kts 131°
2026-04-26 20:11 29.97278 68.04229 36817 ft 513 kts 132°
2026-04-26 20:12 29.90553 68.13842 36759 ft 513 kts 133°
2026-04-26 20:12 29.86081 68.20170 36776 ft 513 kts 133°
2026-04-26 20:13 29.81585 68.26544 36775 ft 513 kts 133°
2026-04-26 20:13 29.77086 68.32924 36750 ft 513 kts 133°
2026-04-26 20:14 29.72586 68.39295 36769 ft 512 kts 133°
2026-04-26 20:14 29.68099 68.45622 36738 ft 512 kts 133°
2026-04-26 20:15 29.63602 68.51965 36774 ft 511 kts 133°
2026-04-26 20:15 29.59105 68.58297 36764 ft 511 kts 133°
2026-04-26 20:16 29.54599 68.64619 36786 ft 512 kts 133°
2026-04-26 20:16 29.50090 68.70946 36768 ft 512 kts 133°
2026-04-26 20:17 29.45576 68.77270 36785 ft 512 kts 133°
2026-04-26 20:17 29.41055 68.83586 36773 ft 512 kts 133°
2026-04-26 20:18 29.36532 68.89896 36784 ft 512 kts 133°
2026-04-26 20:18 29.32041 68.96166 36784 ft 512 kts 133°
2026-04-26 20:19 29.27512 69.02470 36798 ft 512 kts 133°
2026-04-26 20:19 29.22990 69.08747 36761 ft 509 kts 133°
2026-04-26 20:20 29.18474 69.15005 36765 ft 509 kts 133°
2026-04-26 20:20 29.13966 69.21239 36752 ft 508 kts 133°
2026-04-26 20:21 29.09457 69.27480 36753 ft 508 kts 133°
2026-04-26 20:21 29.04982 69.33682 36749 ft 509 kts 133°
2026-04-26 20:22 29.00467 69.39933 36754 ft 510 kts 133°
2026-04-26 20:22 28.95953 69.46168 36751 ft 509 kts 133°
2026-04-26 20:23 28.91439 69.52404 36754 ft 509 kts 133°
2026-04-26 20:23 28.86935 69.58631 36727 ft 509 kts 133°
2026-04-26 20:24 28.82424 69.64844 36726 ft 508 kts 133°
2026-04-26 20:24 28.77906 69.71043 36699 ft 508 kts 133°
2026-04-26 20:25 28.73392 69.77223 36695 ft 507 kts 133°
2026-04-26 20:25 28.68886 69.83393 36668 ft 506 kts 133°
2026-04-26 20:26 28.64394 69.89552 36668 ft 506 kts 133°
2026-04-26 20:26 28.59892 69.95710 36662 ft 506 kts 133°
2026-04-26 20:27 28.55417 70.01811 36664 ft 505 kts 133°
2026-04-26 20:27 28.50911 70.07936 36662 ft 504 kts 133°
2026-04-26 20:28 28.46407 70.14061 36664 ft 504 kts 133°
2026-04-26 20:28 28.41914 70.20183 36675 ft 505 kts 131°
2026-04-26 20:29 28.38437 70.27147 36665 ft 513 kts 110°
2026-04-26 20:29 28.37540 70.31075 36667 ft 515 kts 99°
2026-04-26 20:29 28.37239 70.35131 36670 ft 516 kts 89°
2026-04-26 20:30 28.37698 70.43270 36660 ft 517 kts 85°
2026-04-26 20:30 28.38209 70.51416 36680 ft 517 kts 85°
2026-04-26 20:31 28.38718 70.59573 36686 ft 517 kts 86°
2026-04-26 20:31 28.39226 70.67727 36693 ft 517 kts 86°
2026-04-26 20:32 28.39726 70.75819 36696 ft 517 kts 86°
2026-04-26 20:32 28.40227 70.83966 36698 ft 517 kts 86°
2026-04-26 20:33 28.40722 70.92114 36693 ft 517 kts 86°
2026-04-26 20:33 28.41219 71.00267 36693 ft 517 kts 86°
2026-04-26 20:34 28.41701 71.08414 36694 ft 517 kts 86°
2026-04-26 20:34 28.42164 71.16510 36693 ft 517 kts 86°
2026-04-26 20:35 28.42640 71.24649 36689 ft 517 kts 86°
2026-04-26 20:35 28.43113 71.32800 36694 ft 516 kts 86°
2026-04-26 20:36 28.43576 71.40929 36655 ft 514 kts 86°
2026-04-26 20:36 28.44025 71.49033 36664 ft 513 kts 86°
2026-04-26 20:37 28.44470 71.57138 36665 ft 513 kts 86°
2026-04-26 20:37 28.44918 71.65230 36664 ft 513 kts 86°
2026-04-26 20:38 28.45360 71.73319 36670 ft 513 kts 86°
2026-04-26 20:38 28.45793 71.81361 36667 ft 513 kts 86°
2026-04-26 20:39 28.46227 71.89461 36668 ft 513 kts 86°
2026-04-26 20:39 28.46656 71.97563 36674 ft 513 kts 87°
2026-04-26 20:40 28.47073 72.05656 36678 ft 513 kts 87°
2026-04-26 20:40 28.47487 72.13756 36688 ft 513 kts 87°
2026-04-26 20:41 28.47894 72.21813 36680 ft 513 kts 88°
2026-04-26 20:41 28.47322 72.29853 36667 ft 510 kts 101°
2026-04-26 20:42 28.46126 72.37794 36667 ft 509 kts 101°
2026-04-26 20:42 28.44926 72.45730 36667 ft 509 kts 101°
2026-04-26 20:43 28.43735 72.53609 36670 ft 509 kts 101°
2026-04-26 20:43 28.42532 72.61549 36675 ft 509 kts 101°
2026-04-26 20:44 28.41320 72.69473 36665 ft 509 kts 101°
2026-04-26 20:44 28.40106 72.77400 36669 ft 509 kts 101°
2026-04-26 20:45 28.38889 72.85331 36670 ft 509 kts 101°
2026-04-26 20:45 28.37670 72.93211 36670 ft 509 kts 101°
2026-04-26 20:46 28.36445 73.01121 36672 ft 508 kts 101°
2026-04-26 20:46 28.35216 73.09011 36676 ft 507 kts 101°
2026-04-26 20:47 28.33996 73.16857 36679 ft 508 kts 101°
2026-04-26 20:47 28.32766 73.24747 36680 ft 508 kts 101°
2026-04-26 20:48 28.31524 73.32656 36687 ft 508 kts 101°
2026-04-26 20:48 28.30271 73.40546 36680 ft 507 kts 101°
2026-04-26 20:49 28.29014 73.48427 36678 ft 507 kts 101°
2026-04-26 20:49 28.27766 73.56270 36681 ft 507 kts 101°
2026-04-26 20:50 28.26509 73.64149 36680 ft 507 kts 101°
2026-04-26 20:50 28.25252 73.72037 36679 ft 507 kts 101°
2026-04-26 20:51 28.23992 73.79878 36696 ft 508 kts 101°
2026-04-26 20:51 28.22718 73.87759 36705 ft 508 kts 101°
2026-04-26 20:52 28.21434 73.95656 36686 ft 507 kts 101°
2026-04-26 20:52 28.20162 74.03470 36689 ft 508 kts 101°
2026-04-26 20:53 28.19031 74.11382 36693 ft 508 kts 93°
2026-04-26 20:53 28.19121 74.19411 36694 ft 508 kts 88°
2026-04-26 20:54 28.19332 74.27380 36699 ft 509 kts 88°
2026-04-26 20:54 28.19541 74.35404 36705 ft 509 kts 88°
2026-04-26 20:55 28.19741 74.43454 36712 ft 510 kts 87°
2026-04-26 20:55 28.19935 74.51488 36718 ft 510 kts 87°
2026-04-26 20:56 28.20126 74.59495 36720 ft 510 kts 87°
2026-04-26 20:56 28.20306 74.67537 36720 ft 510 kts 88°
2026-04-26 20:57 28.20478 74.75591 36719 ft 510 kts 88°
2026-04-26 20:57 28.20652 74.83603 36719 ft 510 kts 88°
2026-04-26 20:58 28.20800 74.90309 36723 ft 510 kts 88°
2026-04-26 20:58 28.20998 74.99727 36726 ft 510 kts 88°
2026-04-26 20:59 28.21157 75.07723 36704 ft 509 kts 88°
2026-04-26 20:59 28.21311 75.15745 36700 ft 508 kts 88°
2026-04-26 21:00 28.21458 75.23744 36701 ft 508 kts 88°
2026-04-26 21:00 28.21601 75.31710 36703 ft 508 kts 88°
2026-04-26 21:01 28.21744 75.39721 36707 ft 508 kts 88°
2026-04-26 21:01 28.21887 75.47730 36703 ft 508 kts 88°
2026-04-26 21:02 28.22022 75.55761 36712 ft 509 kts 88°
2026-04-26 21:02 28.22128 75.62435 36717 ft 509 kts 88°
2026-04-26 21:03 28.22269 75.71770 36726 ft 510 kts 88°
2026-04-26 21:03 28.22388 75.79815 36739 ft 510 kts 89°
2026-04-26 21:04 28.22485 75.86516 36735 ft 511 kts 89°
2026-04-26 21:04 28.22593 75.94585 36731 ft 511 kts 89°
2026-04-26 21:05 28.22702 76.02648 36722 ft 511 kts 88°
2026-04-26 21:05 28.22802 76.10659 36729 ft 511 kts 89°
2026-04-26 21:06 28.22894 76.18712 36238 ft 510 kts 89°
2026-04-26 21:06 28.22938 76.22717 35392 ft 503 kts 88°
2026-04-26 21:06 28.22981 76.26633 34625 ft 489 kts 88°
2026-04-26 21:06 28.23022 76.30393 33877 ft 478 kts 88°
2026-04-26 21:07 28.23063 76.34129 32961 ft 470 kts 88°
2026-04-26 21:07 28.23103 76.37816 32018 ft 464 kts 88°
2026-04-26 21:07 28.23195 76.41458 31112 ft 458 kts 82°
2026-04-26 21:07 28.23874 76.44944 30232 ft 448 kts 67°
2026-04-26 21:08 28.25220 76.48087 29305 ft 439 kts 56°
2026-04-26 21:08 28.26762 76.51071 28323 ft 435 kts 56°
2026-04-26 21:08 28.28267 76.53980 27384 ft 430 kts 56°
2026-04-26 21:08 28.29772 76.56896 26480 ft 425 kts 57°
2026-04-26 21:09 28.31256 76.59780 25590 ft 420 kts 57°
2026-04-26 21:09 28.32721 76.62628 24725 ft 416 kts 57°
2026-04-26 21:09 28.34171 76.65448 23891 ft 411 kts 57°
2026-04-26 21:09 28.35502 76.68305 23033 ft 408 kts 61°
2026-04-26 21:10 28.36727 76.71193 22079 ft 404 kts 62°
2026-04-26 21:10 28.37903 76.74078 21148 ft 400 kts 63°
2026-04-26 21:10 28.39030 76.76904 20261 ft 396 kts 63°
2026-04-26 21:10 28.40157 76.79749 19388 ft 392 kts 63°
2026-04-26 21:11 28.41278 76.82565 18539 ft 388 kts 62°
2026-04-26 21:11 28.42398 76.85352 17603 ft 386 kts 62°
2026-04-26 21:11 28.43519 76.88116 16596 ft 384 kts 62°
2026-04-26 21:11 28.44638 76.90862 15605 ft 382 kts 62°
2026-04-26 21:12 28.45754 76.93601 14694 ft 380 kts 63°
2026-04-26 21:12 28.46514 76.96422 13811 ft 382 kts 81°
2026-04-26 21:12 28.46412 76.99435 12831 ft 383 kts 102°
2026-04-26 21:12 28.45785 77.02372 11843 ft 381 kts 104°
2026-04-26 21:13 28.45143 77.05292 10874 ft 378 kts 104°
2026-04-26 21:13 28.44512 77.08183 9945 ft 375 kts 104°
2026-04-26 21:13 28.43890 77.11049 8978 ft 371 kts 103°
2026-04-26 21:13 28.43277 77.13880 8000 ft 366 kts 104°
2026-04-26 21:14 28.42690 77.16605 7499 ft 348 kts 104°
2026-04-26 21:14 28.42131 77.19204 7037 ft 331 kts 104°
2026-04-26 21:14 28.41593 77.21698 6524 ft 319 kts 104°
2026-04-26 21:14 28.41076 77.24098 6041 ft 307 kts 103°
2026-04-26 21:15 28.40878 77.26380 5941 ft 277 kts 77°
2026-04-26 21:15 28.41657 77.28209 5826 ft 248 kts 41°
2026-04-26 21:15 28.43123 77.29127 5408 ft 241 kts 10°
2026-04-26 21:15 28.44754 77.29527 5160 ft 235 kts
2026-04-26 21:16 28.46309 77.29876 4958 ft 222 kts
2026-04-26 21:16 28.47800 77.30204 4673 ft 213 kts
2026-04-26 21:16 28.49224 77.30048 4397 ft 205 kts 334°
2026-04-26 21:16 28.50209 77.28943 4078 ft 200 kts 296°
2026-04-26 21:17 28.50551 77.27448 3808 ft 196 kts 284°
2026-04-26 21:17 28.50861 77.25935 3342 ft 198 kts 287°
2026-04-26 21:17 28.51204 77.24417 2839 ft 198 kts 288°
2026-04-26 21:17 28.51545 77.22898 2529 ft 194 kts 287°
2026-04-26 21:18 28.51848 77.21501 2482 ft 168 kts 287°
2026-04-26 21:18 28.52114 77.20273 2379 ft 153 kts 288°
2026-04-26 21:18 28.52364 77.19118 2247 ft 147 kts 288°
2026-04-26 21:18 28.52606 77.18000 2073 ft 144 kts 288°
2026-04-26 21:19 28.52844 77.16900 1893 ft 142 kts 287°
2026-04-26 21:19 28.53078 77.15813 1718 ft 141 kts 287°
2026-04-26 21:19 28.53312 77.14731 1550 ft 141 kts 285°
2026-04-26 21:19 28.53540 77.13670 1378 ft 140 kts 284°
2026-04-26 21:20 28.53767 77.12599 1186 ft 139 kts 284°
2026-04-26 21:20 28.53986 77.11529 993 ft 138 kts 285°
2026-04-26 21:20 28.54227 77.10474 802 ft 137 kts 285°
2026-04-26 21:20 28.54445 77.09527 750 ft 102 kts 284°
2026-04-26 21:21 28.54563 77.08933 752 ft 52 kts 284°
2026-04-26 21:21 28.54619 77.08720 752 ft 11 kts 325°
2026-04-26 21:21 28.54696 77.08726 752 ft 11 kts 15°
2026-04-26 21:21 28.54772 77.08748 750 ft 10 kts 18°
2026-04-26 21:22 28.54774 77.08749 750 ft 0 kts 18°
2026-04-26 21:22 28.54784 77.08752 747 ft 5 kts 16°
2026-04-26 21:23 28.54954 77.08802 750 ft 14 kts
2026-04-26 21:23 28.55023 77.08764 749 ft 2 kts 329°
2026-04-26 21:23 28.55029 77.08764 750 ft 1 kts 358°
2026-04-26 21:23 28.55042 77.08786 749 ft 4 kts 64°
2026-04-26 21:24 28.55053 77.08812 750 ft 3 kts 62°
2026-04-26 21:24 28.55062 77.08830 750 ft 0 kts 60°